Kincheloe, MI

10:45 AM EST on February 24, 2017 (GMT -0500)
Chippewa County International

Weather History for KCIU - April, 2014

Change the Weather History Date:

Tuesday, April 29, 2014

  Actual Average Record
Temperature  
Mean Temperature 42 °F -  
Max Temperature 46 °F 59 °F 79 °F (1990)
Min Temperature 39 °F 32 °F 21 °F (1983)
Degree Days  
Heating Degree Days 22    
Moisture  
Dew Point 36 °F    
Average Humidity 78    
Maximum Humidity 100    
Minimum Humidity 43    
Precipitation  
Precipitation 0.58 in - - ()
Sea Level Pressure  
Sea Level Pressure 29.81 in    
Wind  
Wind Speed 19 mph (East)    
Max Wind Speed 32 mph    
Max Gust Speed 45 mph    
Visibility 7 miles    
Events      
Averages and records for this station are not official NWS values.
T = Trace of Precipitation, MM = Missing Value Source: NWS Daily Summary

Daily Weather History Graph

Daily Weather History Graph

Search for Another Location

Airport or City:

Trip Planner

Search our weather history database for the weather conditions in past years. The results will help you decide how hot, cold, wet, or windy it might be!

Date:

Astronomy

Apr. 29, 2014 Rise Set
Actual Time 6:27 AM EDT 8:43 PM EDT
Civil Twilight 5:54 AM EDT 9:17 PM EDT
Nautical Twilight 5:13 AM EDT 9:58 PM EDT
Astronomical Twilight 4:27 AM EDT 10:44 PM EDT
Moon 6:45 AM EDT (4/29) 9:24 PM EDT (4/29)
Length of Visible Light 15h 22m
Length of Day
14h 16m
New Moon, 0% of the Moon is Illuminated
Apr 29
New Moon
May 6
First Quarter
May 14
Full
May 21
Last Quarter
May 28
New

Hourly Weather History & Observations

Time (EDT) Temp. Windchill Dew Point Humidity Pressure Visibility Wind Dir Wind Speed Gust Speed Precip Events Conditions
12:15 AM 44.6 °F 37.4 °F 24.8 °F 46% 29.98 in 10.0 mi ENE 16.1 mph 20.7 mph N/A   Clear
12:35 AM 44.6 °F 36.6 °F 24.8 °F 46% 29.96 in 10.0 mi ENE 19.6 mph 25.3 mph N/A   Clear
12:55 AM 46.4 °F 40.1 °F 24.8 °F 43% 29.97 in 10.0 mi ENE 15.0 mph 23.0 mph N/A   Clear
1:15 AM 46.4 °F 39.5 °F 24.8 °F 43% 29.97 in 10.0 mi ENE 17.3 mph 24.2 mph N/A   Clear
1:35 AM 46.4 °F 39.0 °F 24.8 °F 43% 29.94 in 10.0 mi ENE 19.6 mph 26.5 mph N/A   Clear
1:55 AM 46.4 °F 40.1 °F 24.8 °F 43% 29.95 in 10.0 mi ENE 15.0 mph 21.9 mph N/A   Clear
2:15 AM 46.4 °F 39.8 °F 24.8 °F 43% 29.94 in 10.0 mi ENE 16.1 mph 21.9 mph N/A   Clear
2:35 AM 46.4 °F 39.2 °F 24.8 °F 43% 29.93 in 10.0 mi ENE 18.4 mph 21.9 mph N/A   Clear
2:55 AM 46.4 °F 39.8 °F 24.8 °F 43% 29.93 in 10.0 mi ENE 16.1 mph 24.2 mph N/A   Partly Cloudy
3:15 AM 46.4 °F 39.8 °F 26.6 °F 46% 29.92 in 10.0 mi East 16.1 mph 24.2 mph N/A   Partly Cloudy
3:35 AM 46.4 °F 39.2 °F 26.6 °F 46% 29.91 in 10.0 mi ENE 18.4 mph 24.2 mph N/A   Partly Cloudy
3:55 AM 46.4 °F 39.2 °F 26.6 °F 46% 29.90 in 10.0 mi ENE 18.4 mph 23.0 mph N/A   Mostly Cloudy
4:15 AM 46.4 °F 39.5 °F 26.6 °F 46% 29.90 in 10.0 mi ENE 17.3 mph 26.5 mph N/A   Overcast
4:35 AM 46.4 °F 40.7 °F 26.6 °F 46% 29.91 in 10.0 mi East 12.7 mph 19.6 mph N/A   Overcast
4:55 AM 46.4 °F 40.4 °F 26.6 °F 46% 29.90 in 10.0 mi East 13.8 mph 20.7 mph N/A   Overcast
5:15 AM 46.4 °F 40.7 °F 26.6 °F 46% 29.89 in 10.0 mi East 12.7 mph - N/A   Overcast
5:35 AM 46.4 °F 41.1 °F 28.4 °F 50% 29.88 in 10.0 mi East 11.5 mph - N/A   Overcast
5:55 AM 44.6 °F 37.8 °F 28.4 °F 53% 29.87 in 10.0 mi East 15.0 mph 20.7 mph N/A   Overcast
6:15 AM 44.6 °F 37.2 °F 30.2 °F 57% 29.85 in 10.0 mi ENE 17.3 mph - N/A   Overcast
6:35 AM 44.6 °F 37.8 °F 33.8 °F 66% 29.84 in 10.0 mi East 15.0 mph 26.5 mph N/A   Overcast
6:55 AM 44.6 °F 37.2 °F 32.0 °F 61% 29.82 in 10.0 mi ENE 17.3 mph 23.0 mph N/A   Overcast
7:15 AM 44.6 °F 37.2 °F 32.0 °F 61% 29.81 in 10.0 mi East 17.3 mph - N/A   Overcast
7:35 AM 44.6 °F 36.9 °F 32.0 °F 61% 29.80 in 10.0 mi ENE 18.4 mph 25.3 mph N/A   Overcast
7:55 AM 44.6 °F 36.9 °F 33.8 °F 66% 29.80 in 10.0 mi East 18.4 mph 25.3 mph N/A   Overcast
8:15 AM 44.6 °F 36.9 °F 35.6 °F 71% 29.81 in 10.0 mi East 18.4 mph 24.2 mph N/A   Overcast
8:35 AM 44.6 °F 37.4 °F 35.6 °F 71% 29.81 in 10.0 mi East 16.1 mph 24.2 mph N/A   Overcast
8:55 AM 44.6 °F 36.6 °F 35.6 °F 71% 29.81 in 10.0 mi East 19.6 mph 23.0 mph N/A   Overcast
9:15 AM 44.6 °F 36.4 °F 35.6 °F 71% 29.79 in 10.0 mi ENE 20.7 mph 25.3 mph N/A   Overcast
9:35 AM 44.6 °F 37.2 °F 37.4 °F 76% 29.77 in 10.0 mi ENE 17.3 mph 26.5 mph N/A   Mostly Cloudy
9:55 AM 44.6 °F 37.2 °F 37.4 °F 76% 29.77 in 10.0 mi East 17.3 mph 24.2 mph N/A   Overcast
10:15 AM 44.6 °F 36.4 °F 39.2 °F 81% 29.76 in 10.0 mi East 20.7 mph 29.9 mph 0.02 in   Overcast
10:35 AM 44.6 °F 37.2 °F 39.2 °F 81% 29.76 in 10.0 mi East 17.3 mph 27.6 mph 0.03 in   Overcast
10:55 AM 44.6 °F 35.9 °F 41.0 °F 87% 29.75 in 10.0 mi East 23.0 mph 28.8 mph 0.04 in   Overcast
11:15 AM 42.8 °F 33.3 °F 41.0 °F 93% 29.75 in 10.0 mi East 24.2 mph 34.5 mph 0.05 in   Overcast
11:35 AM 42.8 °F 33.8 °F 42.8 °F 100% 29.74 in 10.0 mi East 21.9 mph 33.4 mph 0.10 in   Overcast
11:55 AM 42.8 °F 34.0 °F 42.8 °F 100% 29.75 in 9.0 mi East 20.7 mph 29.9 mph 0.17 in   Overcast
12:15 PM 42.8 °F 34.3 °F 42.8 °F 100% 29.75 in 8.0 mi East 19.6 mph 27.6 mph 0.04 in   Overcast
12:35 PM 42.8 °F 33.8 °F 41.0 °F 93% 29.74 in 10.0 mi East 21.9 mph 38.0 mph 0.09 in   Overcast
12:55 PM 42.8 °F 33.1 °F 41.0 °F 93% 29.73 in 10.0 mi East 25.3 mph 34.5 mph 0.14 in   Overcast
1:15 PM 44.6 °F 34.7 °F 42.8 °F 93% 29.73 in 10.0 mi East 29.9 mph 40.3 mph 0.07 in   Overcast
1:35 PM 44.6 °F 35.3 °F 42.8 °F 93% 29.71 in 10.0 mi East 26.5 mph 44.9 mph 0.10 in   Overcast
1:55 PM 44.6 °F 34.9 °F 42.8 °F 93% 29.71 in 10.0 mi East 28.8 mph 42.6 mph 0.11 in   Overcast
2:15 PM 44.6 °F 34.7 °F 42.8 °F 93% 29.70 in 10.0 mi East 29.9 mph 42.6 mph 0.01 in   Overcast
2:35 PM 42.8 °F 32.3 °F 41.0 °F 93% 29.71 in 10.0 mi East 29.9 mph 41.4 mph 0.02 in   Overcast
2:55 PM 42.8 °F 32.1 °F 41.0 °F 93% 29.71 in 9.0 mi East 31.1 mph 40.3 mph 0.05 in   Overcast
3:15 PM 42.8 °F 31.9 °F 41.0 °F 93% 29.71 in 10.0 mi East 32.2 mph 38.0 mph 0.02 in   Overcast
3:35 PM 42.8 °F 31.9 °F 41.0 °F 93% 29.70 in 5.0 mi East 32.2 mph 41.4 mph 0.04 in   Overcast
3:55 PM 42.8 °F 33.1 °F 41.0 °F 93% 29.72 in 8.0 mi East 25.3 mph 40.3 mph 0.06 in   Overcast
4:15 PM 42.8 °F 32.9 °F 41.0 °F 93% 29.72 in 5.0 mi East 26.5 mph 35.7 mph 0.01 in   Overcast
4:35 PM 42.8 °F 32.9 °F 41.0 °F 93% 29.72 in 4.0 mi East 26.5 mph 38.0 mph 0.01 in   Overcast
4:55 PM 42.8 °F 33.1 °F 41.0 °F 93% 29.72 in 2.0 mi East 25.3 mph 32.2 mph N/A   Overcast
5:15 PM 42.8 °F 33.5 °F 41.0 °F 93% 29.72 in 2.0 mi East 23.0 mph 36.8 mph N/A   Overcast
5:35 PM 42.8 °F 32.9 °F 41.0 °F 93% 29.72 in 1.8 mi East 26.5 mph 34.5 mph N/A   Overcast
5:55 PM 42.8 °F 34.3 °F 42.8 °F 100% 29.74 in 1.8 mi ESE 19.6 mph 28.8 mph N/A   Overcast
6:15 PM 41.0 °F 31.1 °F 41.0 °F 100% 29.74 in 1.8 mi ESE 23.0 mph 29.9 mph N/A   Overcast
6:35 PM 41.0 °F 32.5 °F 41.0 °F 100% 29.74 in 1.8 mi East 17.3 mph 25.3 mph N/A   Overcast
6:55 PM 41.0 °F 31.6 °F 41.0 °F 100% 29.76 in 2.0 mi East 20.7 mph 26.5 mph N/A   Overcast
7:15 PM 41.0 °F 32.5 °F 41.0 °F 100% 29.77 in 1.8 mi East 17.3 mph 23.0 mph N/A   Overcast
7:35 PM 41.0 °F 32.5 °F 39.2 °F 93% 29.79 in 1.2 mi East 17.3 mph 27.6 mph N/A   Overcast
7:55 PM 41.0 °F 32.5 °F 39.2 °F 93% 29.81 in 1.8 mi East 17.3 mph - N/A   Overcast
8:15 PM 41.0 °F 32.5 °F 39.2 °F 93% 29.80 in 1.5 mi East 17.3 mph 21.9 mph N/A   Overcast
8:35 PM 41.0 °F 32.8 °F 39.2 °F 93% 29.80 in 2.5 mi East 16.1 mph 23.0 mph N/A   Overcast
8:55 PM 41.0 °F 33.1 °F 39.2 °F 93% 29.84 in 10.0 mi SE 15.0 mph 20.7 mph N/A   Overcast
9:15 PM 39.2 °F 30.5 °F 39.2 °F 100% 29.85 in 6.0 mi ESE 16.1 mph - N/A   Overcast
9:35 PM 39.2 °F 30.5 °F 39.2 °F 100% 29.84 in 1.2 mi East 16.1 mph 23.0 mph N/A   Overcast
9:55 PM 39.2 °F 30.2 °F 39.2 °F 100% 29.84 in 1.2 mi East 17.3 mph - N/A   Overcast
10:15 PM 39.2 °F 30.2 °F 39.2 °F 100% 29.82 in 0.8 mi East 17.3 mph 26.5 mph N/A   Overcast
10:35 PM 39.2 °F 28.5 °F 39.2 °F 100% 29.79 in 0.5 mi East 24.2 mph 29.9 mph N/A   Overcast
10:55 PM 41.0 °F 31.6 °F 41.0 °F 100% 29.78 in 1.0 mi East 20.7 mph 31.1 mph N/A   Overcast
11:15 PM 42.8 °F 34.8 °F 42.8 °F 100% 29.77 in 2.0 mi East 17.3 mph 24.2 mph N/A   Overcast
11:35 PM 42.8 °F 35.8 °F 41.0 °F 93% 29.78 in 3.0 mi East 13.8 mph 19.6 mph N/A   Overcast
11:55 PM 41.0 °F 34.3 °F 41.0 °F 100% 29.79 in 3.0 mi East 11.5 mph 18.4 mph N/A   Overcast